Terminal Aerodrome Forecast
Issued by NWS Billings, MT

Home | Current Version | Previous Version | Text Only | Print | Product List | Glossary On
Versions: 1 2 3 4 5 6 7 8 9 10 11 12 13 14 15 16 17 18 19 20 21 22 23 24 25 26 27 28 29 30 31 32 33 34
000
FTUS45 KBYZ 251120
TAFBIL
TAF
KBIL 251120Z 2512/2612 34014KT P6SM -RA BKN015 OVC030
      TEMPO 2512/2516 3SM -RA BR SCT005 OVC012
     FM251600 32014KT P6SM VCSH FEW015 SCT030 OVC080
      TEMPO 2516/2518 5SM -RA BR SCT012 OVC030
     FM252000 32014KT P6SM SCT040 BKN200
     FM260200 06008KT P6SM FEW020 SCT100
     FM261000 08010KT P6SM VCFG FEW002 SCT120=

USA.gov is the U.S. government's official web portal to all federal, state and local government web resources and services.